Portada
METAR-TAF:

METAR-TAF

Aeroports :

Proserpine, Austràlia

latitud: 20-29-42S, longitud: 148-33-06E, altitud: 25 m

Observació

L'informe es va fer fa 1 hora i 17 minuts, a les 07:00 UTC
Vent 11 kt del Est
Temperatura 29°C
Humitat 52%
Pressió 1011 hPa
Visibilitat 10 km o més

METAR: YBPN 180700Z AUTO 09011KT 9999 // NCD 29/18 Q1011

Hora: 18:17 (08:17 UTC)


TAF: manca

Observacions i pronòstics meteorològics de més de 4000 aeroports (METAR i TAF).

Les estacions disponibles són els punts grocs i vermells al mapa.

Posi el ratolí al punt desitjat per veure el nom de l'estació.

Feu clic per veure les observacions i els pronòstics meteorològics.

Per canviar el mapa: feu clic els botons verds amb una creu de color negre per apropar; al botó verd amb un guió per allunyar la imatge; o en les fletxes verdes per a mapes adjacents.


METAR-TAF: